DW5704 Weather Reports


Display with metric or nautical units.
time (UTC)temp
F
wind
direction
speed
MPH
gust
MPH
rain 1hr
in
rain 24hr
in
rain mn
in
humidity
%
barometer
mb
20210616015554 59 133 0.0 0.0 0.00 0.11 0.11 82 1006.8
20210616015422 59 131 0.0 0.0 0.00 0.11 0.11 82 1006.8
20210616015253 59 133 0.0 0.0 0.00 0.11 0.11 82 1006.8
20210616015126 59 133 0.0 0.0 0.00 0.11 0.11 82 1006.8
20210616014955 59 133 0.0 0.0 0.00 0.11 0.11 82 1006.8
20210616014827 59 133 0.0 0.0 0.00 0.11 0.11 82 1006.8
20210616014659 59 133 0.0 0.0 0.00 0.11 0.11 82 1006.8
20210616014531 59 133 0.0 0.0 0.00 0.11 0.11 81 1006.8
20210616014402 59 133 0.0 0.0 0.00 0.11 0.11 81 1007.6
20210616014235 60 133 0.0 0.0 0.00 0.11 0.11 81 1007.6
20210616014108 60 131 0.0 0.0 0.00 0.11 0.11 81 1007.6
20210616013938 60 133 0.0 0.0 0.00 0.11 0.11 81 1007.6
20210616013810 60 133 0.0 0.0 0.00 0.11 0.11 81 1007.6
20210616013647 60 133 0.0 0.0 0.00 0.11 0.11 80 1007.6
20210616013518 60 133 0.0 0.0 0.00 0.11 0.11 80 1007.6
20210616013351 60 133 0.0 0.0 0.00 0.11 0.11 80 1007.6
20210616013223 60 133 0.0 0.0 0.00 0.11 0.11 80 1007.6
20210616013056 60 133 0.0 0.0 0.00 0.11 0.11 80 1007.6
20210616012925 60 131 0.0 0.0 0.00 0.11 0.11 80 1007.4
20210616012756 60 131 0.0 0.0 0.00 0.11 0.11 79 1007.4
20210616012629 61 131 0.0 0.0 0.00 0.11 0.11 79 1007.4
20210616012503 61 131 0.0 0.0 0.00 0.11 0.11 78 1007.4
20210616012336 61 133 0.0 0.0 0.00 0.11 0.11 78 1007.4
20210616012208 61 131 0.0 0.0 0.00 0.11 0.11 77 1007.4
20210616012043 61 133 0.0 0.0 0.00 0.11 0.11 77 1007.4
20210616011912 61 131 0.0 0.0 0.00 0.11 0.11 76 1007.4
20210616011749 61 133 0.0 0.0 0.00 0.11 0.11 76 1007.4
20210616011623 62 131 0.0 0.0 0.00 0.11 0.11 75 1007.4
20210616011452 62 131 0.0 0.0 0.00 0.11 0.11 75 1007.3
20210616011325 62 131 0.0 0.0 0.00 0.11 0.11 74 1007.3
20210616011157 62 131 0.0 0.0 0.00 0.11 0.11 74 1007.3
20210616011029 62 130 0.0 0.0 0.00 0.11 0.11 73 1007.3
20210616010900 62 133 0.0 0.0 0.00 0.11 0.11 73 1007.3
20210616010732 62 133 0.0 0.0 0.00 0.11 0.11 73 1007.3
20210616010605 62 131 0.0 0.0 0.00 0.11 0.11 73 1007.3
20210616010438 62 130 0.0 0.0 0.00 0.11 0.11 72 1007.3
20210616010310 63 130 0.0 0.0 0.00 0.11 0.11 72 1007.3
20210616010153 63 130 0.0 0.0 0.00 0.11 0.11 72 1007.3
20210616010011 63 131 0.0 0.0 0.00 0.11 0.11 72 1007.3
20210616005846 63 130 0.0 0.0 0.00 0.11 0.11 72 1007.0
20210616005718 63 130 0.0 0.0 0.00 0.11 0.11 72 1007.0
20210616005552 63 130 0.0 0.0 0.00 0.11 0.11 72 1007.0
20210616005420 63 131 0.0 0.0 0.00 0.11 0.11 72 1007.0
20210616005252 63 130 0.0 0.0 0.00 0.11 0.11 72 1007.0
20210616005126 64 128 0.0 0.0 0.00 0.11 0.11 72 1007.0
20210616004955 64 130 0.0 0.0 0.00 0.11 0.11 71 1007.0
20210616004827 64 130 0.0 0.0 0.00 0.11 0.11 71 1007.0
20210616004658 64 130 0.0 0.0 0.00 0.11 0.11 71 1007.0
20210616004531 64 130 0.0 0.0 0.00 0.11 0.11 70 1007.0
20210616004402 64 130 0.0 0.0 0.00 0.11 0.11 70 1006.9
20210616004233 64 130 0.0 0.0 0.00 0.11 0.11 69 1006.9
20210616004107 65 130 0.0 0.0 0.00 0.11 0.11 68 1006.9
20210616003941 65 130 0.0 0.0 0.00 0.11 0.11 68 1006.9
20210616003812 65 131 0.0 0.0 0.00 0.11 0.11 67 1006.9
20210616003644 65 131 0.0 0.0 0.00 0.11 0.11 67 1006.9
20210616003517 65 130 0.0 0.0 0.00 0.11 0.11 67 1006.9
20210616003350 65 131 0.0 0.0 0.00 0.11 0.11 67 1006.9
20210616003222 65 130 0.0 0.0 0.00 0.11 0.11 66 1006.9
20210616003054 65 131 0.0 0.0 0.00 0.11 0.11 65 1006.9
20210616002925 65 131 0.0 0.0 0.00 0.11 0.11 65 1006.5
20210616002756 66 131 0.0 0.0 0.00 0.11 0.11 65 1006.5
20210616002631 66 133 0.0 0.0 0.00 0.11 0.11 65 1006.5
20210616002501 66 131 0.0 0.0 0.00 0.11 0.11 63 1006.5
20210616002333 66 131 0.0 0.0 0.00 0.11 0.11 61 1006.5
20210616002206 66 131 0.0 0.0 0.00 0.11 0.11 61 1006.5
20210616002043 66 131 0.0 0.0 0.00 0.11 0.11 61 1006.5
20210616001912 66 131 0.0 0.0 0.00 0.11 0.11 61 1006.5
20210616001745 66 131 0.0 0.0 0.00 0.11 0.11 61 1006.5
20210616001617 66 131 0.0 0.0 0.00 0.11 0.11 60 1006.5
20210616001446 66 131 0.0 0.0 0.00 0.11 0.11 60 1006.5
20210616001318 66 131 0.0 0.0 0.00 0.11 0.11 60 1006.5
20210616001150 66 131 0.0 0.0 0.00 0.11 0.11 59 1006.5
20210616001026 66 131 0.0 0.0 0.00 0.11 0.11 59 1006.5
20210616000859 66 131 0.0 0.0 0.00 0.11 0.11 59 1006.5
20210616000729 66 131 0.0 0.0 0.00 0.11 0.11 59 1006.5
20210616000600 66 131 0.0 0.0 0.00 0.11 0.11 58 1006.5
20210616000429 66 133 0.0 0.0 0.00 0.11 0.11 58 1006.5
20210616000256 66 131 0.0 0.0 0.00 0.11 0.11 59 1006.5
20210616000115 66 131 0.0 0.0 0.00 0.11 0.11 58 1006.5
20210615235944 66 131 0.0 0.0 0.00 0.11 0.11 58 1006.4
20210615235817 66 133 0.0 0.0 0.00 0.11 0.11 58 1006.4
20210615235649 66 131 0.0 0.0 0.00 0.11 0.11 58 1006.4
20210615235520 66 131 0.0 0.0 0.00 0.11 0.11 58 1006.4
20210615235356 66 133 0.0 0.0 0.00 0.11 0.11 58 1006.4
20210615235229 67 131 0.0 0.0 0.00 0.11 0.11 58 1006.4
20210615235102 67 133 0.0 0.0 0.00 0.11 0.11 57 1006.4
20210615234932 67 131 0.0 13.0 0.00 0.11 0.11 57 1006.4
20210615234805 67 133 0.0 13.0 0.00 0.11 0.11 57 1006.4
20210615234635 67 131 0.0 13.0 0.00 0.11 0.11 57 1006.4
20210615234507 67 134 0.0 13.0 0.00 0.11 0.11 56 1006.4
20210615234342 67 136 0.0 13.0 0.00 0.11 0.11 56 1006.3
20210615234214 67 137 5.0 13.0 0.00 0.11 0.11 56 1006.3
20210615234047 67 128 8.0 13.0 0.00 0.11 0.11 56 1006.3
20210615233917 67 128 5.0 10.0 0.00 0.11 0.11 58 1006.3
20210615233750 67 117 0.0 12.0 0.00 0.11 0.11 59 1006.3
20210615233623 67 117 0.0 12.0 0.00 0.11 0.11 57 1006.3
20210615233453 67 117 1.0 12.0 0.00 0.11 0.11 56 1006.3
20210615233326 67 114 1.0 12.0 0.00 0.11 0.11 57 1006.3
20210615233157 67 123 4.0 12.0 0.00 0.11 0.11 56 1006.3
20210615233030 67 128 0.0 12.0 0.00 0.11 0.11 56 1006.3
20210615232902 67 127 7.0 12.0 0.00 0.11 0.11 57 1006.5
20210615232738 67 131 0.0 8.0 0.00 0.11 0.11 58 1006.5
20210615232611 67 130 0.0 8.0 0.00 0.11 0.11 58 1006.5
20210615232444 67 123 0.0 8.0 0.00 0.11 0.11 58 1006.5
20210615232316 67 130 1.0 14.0 0.00 0.11 0.11 60 1006.5
20210615232148 67 141 1.0 14.0 0.00 0.11 0.11 61 1006.5
20210615232021 67 126 1.0 14.0 0.00 0.11 0.11 62 1006.5
20210615231852 67 126 4.0 14.0 0.00 0.11 0.11 61 1006.5
20210615231725 67 124 3.0 14.0 0.00 0.11 0.11 64 1006.5
20210615231557 67 126 1.0 14.0 0.00 0.11 0.11 66 1006.5
20210615231428 67 123 11.0 14.0 0.00 0.11 0.11 67 1006.6
20210615231259 67 127 1.0 12.0 0.00 0.11 0.11 70 1006.6
20210615231134 67 121 5.0 12.0 0.00 0.11 0.11 72 1006.6
20210615231005 67 136 1.0 12.0 0.00 0.11 0.11 69 1006.6
20210615230836 67 138 1.0 12.0 0.00 0.11 0.11 70 1006.6
20210615230709 67 126 1.0 8.0 0.00 0.11 0.11 70 1006.6
20210615230546 67 126 0.0 8.0 0.00 0.11 0.11 71 1006.6
20210615230417 67 127 5.0 8.0 0.00 0.11 0.11 72 1006.6
20210615230258 67 124 1.0 8.0 0.00 0.11 0.11 73 1006.6
20210615230117 67 134 0.0 5.0 0.00 0.11 0.11 73 1006.6
20210615225947 67 140 0.0 3.0 0.00 0.11 0.11 74 1006.3
20210615225820 67 127 0.0 3.0 0.00 0.11 0.11 73 1006.3
20210615225652 67 127 0.0 3.0 0.00 0.11 0.11 73 1006.3
20210615225523 67 127 0.0 3.0 0.00 0.11 0.11 73 1006.3
20210615225356 68 127 0.0 3.0 0.00 0.11 0.11 72 1006.3
20210615225228 68 127 0.0 3.0 0.00 0.11 0.11 72 1006.3
20210615225101 68 128 1.0 3.0 0.00 0.11 0.11 71 1006.3
20210615224930 68 128 0.0 5.0 0.00 0.11 0.11 71 1006.3
20210615224803 68 128 0.0 5.0 0.00 0.11 0.11 71 1006.3
20210615224639 68 127 0.0 5.0 0.00 0.11 0.11 70 1006.3
20210615224510 68 127 0.0 5.0 0.00 0.11 0.11 68 1006.3
20210615224341 69 127 0.0 5.0 0.00 0.11 0.11 68 1006.1
20210615224213 69 128 1.0 5.0 0.00 0.11 0.11 67 1006.1
20210615224044 69 130 2.0 5.0 0.00 0.11 0.11 69 1006.1
20210615223914 69 128 0.0 5.0 0.00 0.11 0.11 69 1006.1
20210615223747 69 130 0.0 5.0 0.00 0.11 0.11 69 1006.1
20210615223620 69 128 0.0 5.0 0.00 0.11 0.11 68 1006.1
20210615223449 69 128 0.0 5.0 0.00 0.11 0.11 67 1006.1
20210615223323 70 130 2.0 5.0 0.00 0.11 0.11 65 1006.1
20210615223154 70 128 0.0 0.0 0.00 0.11 0.11 63 1006.1
20210615223027 70 127 0.0 0.0 0.00 0.11 0.11 64 1006.1
20210615222900 70 127 0.0 0.0 0.00 0.11 0.11 63 1005.9
20210615222735 70 127 0.0 0.0 0.00 0.11 0.11 62 1005.9
20210615222610 70 127 0.0 0.0 0.00 0.11 0.11 62 1005.9
20210615222439 70 128 0.0 0.0 0.00 0.11 0.11 61 1005.9
20210615222311 70 127 0.0 0.0 0.00 0.11 0.11 61 1005.9
20210615222143 70 127 0.0 0.0 0.00 0.11 0.11 61 1005.9
20210615222015 70 127 0.0 7.0 0.00 0.11 0.11 60 1005.9
20210615221848 70 127 0.0 7.0 0.00 0.11 0.11 60 1005.9
20210615221721 70 127 0.0 7.0 0.00 0.11 0.11 59 1005.9
20210615221554 70 127 0.0 12.0 0.00 0.11 0.11 58 1005.9
20210615221424 70 127 0.0 12.0 0.00 0.11 0.11 58 1006.0
20210615221255 70 127 0.0 12.0 0.00 0.11 0.11 58 1006.0
20210615221129 70 128 3.0 12.0 0.00 0.11 0.11 57 1006.0
20210615220956 70 128 3.0 12.0 0.00 0.11 0.11 58 1006.0
20210615220833 70 133 0.0 12.0 0.00 0.11 0.11 58 1006.0
20210615220705 71 127 8.0 12.0 0.00 0.11 0.11 57 1006.0
20210615220536 71 124 0.0 10.0 0.00 0.11 0.11 57 1006.0
20210615220406 71 121 0.0 10.0 0.00 0.11 0.11 56 1006.0
20210615220249 71 128 0.0 10.0 0.00 0.11 0.11 58 1006.0
20210615220107 71 123 2.0 10.0 0.00 0.11 0.11 56 1006.0
20210615215937 71 124 2.0 10.0 0.00 0.11 0.11 57 1006.0
20210615215809 71 126 3.0 10.0 0.00 0.11 0.11 57 1006.0
20210615215642 71 120 3.0 10.0 0.00 0.11 0.11 57 1006.0
20210615215514 71 147 3.0 10.0 0.00 0.11 0.11 60 1006.0
20210615215345 71 144 1.0 10.0 0.00 0.11 0.11 56 1006.0
20210615215218 71 141 2.0 10.0 0.00 0.11 0.11 58 1006.0
20210615215052 71 131 0.0 2.0 0.00 0.11 0.11 57 1006.0
20210615214925 71 131 0.0 2.0 0.00 0.11 0.11 58 1006.0
20210615214756 71 131 0.0 2.0 0.00 0.11 0.11 58 1006.0
20210615214629 71 131 0.0 2.0 0.00 0.11 0.11 57 1006.0
20210615214458 71 127 0.0 6.0 0.00 0.11 0.11 56 1006.0
20210615214330 71 123 0.0 6.0 0.00 0.11 0.11 56 1006.0
20210615214202 71 124 0.0 6.0 0.00 0.11 0.11 56 1006.0
20210615214037 71 124 0.0 6.0 0.00 0.11 0.11 58 1006.0
20210615213905 71 124 0.0 6.0 0.00 0.11 0.11 57 1006.0
20210615213738 71 124 0.0 12.0 0.00 0.11 0.11 55 1006.0
20210615213612 71 123 2.0 12.0 0.00 0.11 0.11 56 1006.0
20210615213443 71 121 0.0 12.0 0.00 0.11 0.11 58 1006.0
20210615213315 71 123 0.0 12.0 0.00 0.11 0.11 57 1006.0
20210615213147 71 121 0.0 17.0 0.00 0.11 0.11 57 1006.0
20210615213024 71 124 0.0 17.0 0.00 0.11 0.11 57 1006.0
20210615212856 71 123 10.0 17.0 0.00 0.11 0.11 56 1006.2
20210615212729 71 126 6.0 17.0 0.00 0.11 0.11 56 1006.2
20210615212600 71 126 9.0 17.0 0.00 0.11 0.11 60 1006.2
20210615212431 71 124 2.0 17.0 0.00 0.11 0.11 57 1006.2
20210615212305 71 124 11.0 17.0 0.00 0.11 0.11 57 1006.2
20210615212135 71 127 0.0 6.0 0.00 0.11 0.11 60 1006.2
20210615212007 71 126 1.0 11.0 0.00 0.11 0.11 62 1006.2
20210615211838 71 127 1.0 11.0 0.00 0.11 0.11 62 1006.2
20210615211710 71 126 0.0 11.0 0.00 0.11 0.11 63 1006.2
20210615211543 71 126 0.0 11.0 0.00 0.11 0.11 64 1006.2
20210615211413 71 126 0.0 11.0 0.00 0.11 0.11 59 1006.2
20210615211245 71 126 2.0 11.0 0.00 0.11 0.11 59 1006.2
20210615211123 72 126 1.0 11.0 0.00 0.11 0.11 59 1006.2
20210615210952 72 141 0.0 1.0 0.00 0.11 0.11 60 1006.2
20210615210824 72 124 0.0 0.0 0.00 0.11 0.11 66 1006.2
20210615210657 72 124 0.0 0.0 0.00 0.11 0.11 66 1006.2
20210615210531 72 126 0.0 0.0 0.00 0.11 0.11 65 1006.2
20210615210401 71 124 0.0 0.0 0.00 0.11 0.11 63 1006.2
20210615210245 71 126 0.0 0.0 0.00 0.11 0.11 64 1006.2
20210615210103 71 126 0.0 0.0 0.00 0.11 0.11 65 1006.2
20210615205932 71 124 0.0 13.0 0.00 0.11 0.11 66 1006.4
20210615205808 71 126 0.0 13.0 0.00 0.11 0.11 66 1006.4
20210615205642 71 126 0.0 13.0 0.00 0.11 0.11 64 1006.4
20210615205516 70 126 0.0 13.0 0.00 0.11 0.11 63 1006.4
20210615205347 70 126 0.0 13.0 0.00 0.11 0.11 64 1006.4
20210615205223 70 124 0.0 13.0 0.00 0.11 0.11 63 1006.4
20210615205056 70 126 8.0 13.0 0.00 0.11 0.11 68 1006.4
20210615204925 70 130 0.0 10.0 0.00 0.11 0.11 69 1006.4
20210615204757 70 130 0.0 12.0 0.00 0.11 0.11 69 1006.4
20210615204630 69 128 0.0 12.0 0.00 0.11 0.11 69 1006.4
20210615204500 69 130 1.0 12.0 0.00 0.11 0.11 68 1006.5
20210615204335 69 126 5.0 12.0 0.00 0.11 0.11 68 1006.5
20210615204207 69 127 7.0 12.0 0.00 0.11 0.11 71 1006.5
20210615204040 69 126 7.0 12.0 0.00 0.11 0.11 69 1006.5
20210615203913 69 126 6.0 12.0 0.00 0.11 0.11 76 1006.5
20210615203744 68 126 1.0 10.0 0.00 0.11 0.11 75 1006.5
20210615203615 68 124 0.0 2.0 0.00 0.11 0.11 74 1006.5
20210615203443 68 126 0.0 8.0 0.00 0.11 0.11 74 1006.5
20210615203319 68 124 0.0 8.0 0.00 0.11 0.11 76 1006.5
20210615203152 68 124 0.0 8.0 0.00 0.11 0.11 75 1006.5
20210615203025 67 126 0.0 11.0 0.00 0.11 0.11 73 1006.5
20210615202858 67 124 0.0 12.0 0.00 0.11 0.11 72 1006.9
20210615202730 67 126 0.0 12.0 0.00 0.11 0.11 70 1006.9
20210615202604 67 123 7.0 12.0 0.00 0.11 0.11 73 1006.9
20210615202436 66 123 4.0 12.0 0.00 0.11 0.11 73 1006.9
20210615202307 66 124 3.0 12.0 0.00 0.11 0.11 71 1006.9
20210615202140 66 124 9.0 12.0 0.00 0.11 0.11 72 1006.9
20210615202013 66 126 6.0 12.0 0.00 0.11 0.11 73 1006.9
20210615201846 66 128 3.0 10.0 0.00 0.11 0.11 74 1006.9
20210615201719 66 128 7.0 8.0 0.00 0.11 0.11 76 1006.9
20210615201553 66 127 6.0 8.0 0.00 0.11 0.11 77 1006.9
20210615201429 66 128 5.0 8.0 0.00 0.11 0.11 77 1007.0
20210615201300 66 128 1.0 8.0 0.00 0.11 0.11 79 1007.0
20210615201135 66 127 0.0 0.0 0.00 0.11 0.11 78 1007.0
20210615201007 66 126 0.0 0.0 0.00 0.11 0.11 78 1007.0
20210615200840 66 126 0.0 0.0 0.00 0.11 0.11 78 1007.0
20210615200712 66 127 0.0 0.0 0.00 0.11 0.11 78 1007.0
20210615200545 66 126 0.0 0.0 0.00 0.11 0.11 79 1007.0
20210615200415 66 126 0.0 0.0 0.00 0.11 0.11 79 1007.0
20210615200258 66 126 0.0 3.0 0.00 0.11 0.11 79 1007.0
20210615200119 66 126 0.0 3.0 0.00 0.11 0.11 78 1007.0
20210615195946 66 126 0.0 3.0 0.00 0.11 0.11 78 1007.1
20210615195818 66 126 0.0 3.0 0.00 0.11 0.11 78 1007.1
20210615195649 66 126 0.0 6.0 0.00 0.11 0.11 77 1007.1
20210615195527 66 126 0.0 6.0 0.00 0.11 0.11 77 1007.1
20210615195400 66 124 1.0 6.0 0.00 0.11 0.11 77 1007.1
20210615195232 66 148 0.0 6.0 0.00 0.11 0.11 76 1007.1
20210615195103 66 150 0.0 11.0 0.00 0.11 0.11 78 1007.1
20210615194933 66 150 0.0 13.0 0.00 0.11 0.11 78 1007.1
20210615194805 66 148 0.0 13.0 0.00 0.11 0.11 81 1007.1
20210615194639 66 130 0.0 13.0 0.00 0.11 0.11 81 1007.1
20210615194511 66 128 0.0 13.0 0.00 0.11 0.11 82 1007.1
20210615194342 65 127 0.0 13.0 0.00 0.11 0.11 81 1007.1
20210615194216 65 128 10.0 13.0 0.00 0.11 0.11 81 1007.1
20210615194051 65 127 10.0 13.0 0.00 0.11 0.11 82 1007.1
20210615193920 65 128 0.0 6.0 0.00 0.11 0.11 82 1007.1
20210615193755 65 127 4.0 6.0 0.00 0.11 0.11 81 1007.1
20210615193634 65 127 0.0 6.0 0.00 0.11 0.11 82 1007.1
20210615193507 65 128 0.0 6.0 0.00 0.11 0.11 81 1007.1
20210615193337 65 128 0.0 6.0 0.00 0.11 0.11 81 1007.1
20210615193213 65 128 2.0 6.0 0.03 0.11 0.11 80 1007.1
20210615193046 65 128 4.0 8.0 0.03 0.11 0.11 79 1007.1
20210615192914 65 130 0.0 8.0 0.08 0.11 0.11 79 1007.3
20210615192745 65 130 0.0 12.0 0.08 0.11 0.11 78 1007.3
20210615192617 65 131 0.0 12.0 0.10 0.11 0.11 78 1007.3
20210615192446 65 127 0.0 12.0 0.10 0.11 0.11 77 1007.3
20210615192317 65 128 0.0 12.0 0.10 0.11 0.11 77 1007.3
20210615192150 65 128 3.0 12.0 0.10 0.11 0.11 77 1007.3
20210615192023 65 128 0.0 12.0 0.10 0.11 0.11 77 1007.3
20210615191854 66 128 3.0 12.0 0.11 0.11 0.11 77 1007.3
20210615191730 66 130 0.0 1.0 0.11 0.11 0.11 77 1007.3
20210615191603 66 133 0.0 1.0 0.11 0.11 0.11 77 1007.3
20210615191432 66 133 0.0 8.0 0.11 0.11 0.11 78 1007.1
20210615191305 66 134 0.0 8.0 0.11 0.11 0.11 79 1007.1
20210615191137 66 134 0.0 8.0 0.11 0.11 0.11 80 1007.1
20210615191010 66 134 0.0 8.0 0.11 0.11 0.11 81 1007.1
20210615190843 66 133 0.0 8.0 0.11 0.11 0.11 80 1007.1
20210615190714 66 137 1.0 8.0 0.11 0.11 0.11 80 1007.1
20210615190546 66 130 1.0 8.0 0.11 0.11 0.11 81 1007.1
20210615190410 66 130 0.0 7.0 0.11 0.11 0.11 81 1007.1
20210615190253 66 130 0.0 7.0 0.11 0.11 0.11 83 1007.1
20210615190111 66 127 0.0 7.0 0.11 0.11 0.11 83 1007.1
20210615185941 66 144 0.0 7.0 0.11 0.11 0.11 82 1006.9
20210615185818 66 144 0.0 11.0 0.11 0.11 0.11 82 1006.9
20210615185650 66 145 1.0 11.0 0.11 0.11 0.11 82 1006.9
20210615185522 65 121 1.0 11.0 0.11 0.11 0.11 82 1006.9
20210615185354 65 141 1.0 11.0 0.11 0.11 0.11 81 1006.9
20210615185227 65 130 0.0 11.0 0.11 0.11 0.11 81 1006.9
20210615185059 65 124 2.0 11.0 0.11 0.11 0.11 81 1006.9
20210615184929 65 127 1.0 11.0 0.11 0.11 0.11 82 1006.9
20210615184801 65 130 6.0 8.0 0.11 0.11 0.11 83 1006.9
20210615184634 65 133 2.0 11.0 0.11 0.11 0.11 83 1006.9
20210615184505 65 144 0.0 11.0 0.11 0.11 0.11 83 1006.9
20210615184337 65 143 0.0 11.0 0.11 0.11 0.11 83 1006.9
20210615184210 65 143 0.0 11.0 0.11 0.11 0.11 82 1006.9
20210615184048 65 144 0.0 11.0 0.11 0.11 0.11 81 1006.9
20210615183919 65 144 0.0 11.0 0.11 0.11 0.11 80 1006.9
20210615183751 65 145 7.0 11.0 0.11 0.11 0.11 79 1006.9
20210615183623 65 143 0.0 6.0 0.11 0.11 0.11 79 1006.9
20210615183450 66 144 1.0 10.0 0.11 0.11 0.11 78 1006.9
20210615183322 66 141 1.0 11.0 0.11 0.11 0.11 78 1006.9
20210615183154 66 141 4.0 18.0 0.11 0.11 0.11 77 1006.9
20210615183026 66 127 0.0 18.0 0.08 0.08 0.08 75 1006.9
20210615182858 66 126 2.0 18.0 0.05 0.05 0.05 73 1006.7
20210615182731 67 126 1.0 18.0 0.03 0.03 0.03 71 1006.7
20210615182607 67 130 8.0 18.0 0.02 0.02 0.02 70 1006.7
20210615182437 68 124 5.0 18.0 0.01 0.01 0.01 68 1006.7
20210615182309 68 128 4.0 18.0 0.01 0.01 0.01 67 1006.7
20210615182142 69 138 0.0 8.0 0.01 0.01 0.01 65 1006.7
20210615182019 69 144 4.0 8.0 0.01 0.01 0.01 65 1006.7
20210615181850 70 144 0.0 8.0 0.00 0.00 0.00 64 1006.7
20210615181723 70 144 0.0 8.0 0.00 0.00 0.00 62 1006.7
20210615181557 70 145 4.0 8.0 0.00 0.00 0.00 62 1006.7
20210615181427 71 144 0.0 8.0 0.00 0.00 0.00 60 1006.3
20210615181300 71 144 5.0 8.0 0.00 0.00 0.00 59 1006.3
20210615181134 71 147 0.0 0.0 0.00 0.00 0.00 56 1006.3
20210615181005 71 75 0.0 0.0 0.00 0.00 0.00 55 1006.3
20210615180838 71 93 0.0 0.0 0.00 0.00 0.00 56 1006.3
20210615180709 71 95 0.0 0.0 0.00 0.00 0.00 55 1006.3
20210615180541 71 89 0.0 0.0 0.00 0.00 0.00 54 1006.3
20210615180410 72 89 0.0 0.0 0.00 0.00 0.00 52 1006.3
20210615180236 72 92 0.0 0.0 0.00 0.00 0.00 52 1006.3
20210615180056 72 92 0.0 0.0 0.00 0.00 0.00 50 1006.3
20210615175925 72 89 0.0 0.0 0.00 0.00 0.00 48 1006.2
20210615175754 72 92 0.0 0.0 0.00 0.00 0.00 51 1006.2
20210615175628 72 92 0.0 0.0 0.00 0.00 0.00 52 1006.2
20210615175457 72 93 0.0 5.0 0.00 0.00 0.00 52 1006.2
20210615175330 72 93 0.0 5.0 0.00 0.00 0.00 52 1006.2
20210615175203 73 92 0.0 5.0 0.00 0.00 0.00 51 1006.2
20210615175038 73 90 0.0 5.0 0.00 0.00 0.00 51 1006.2
20210615174908 73 90 0.0 5.0 0.00 0.00 0.00 51 1006.2
20210615174741 73 90 0.0 5.0 0.00 0.00 0.00 50 1006.2
20210615174614 73 89 1.0 5.0 0.00 0.00 0.00 49 1006.2
20210615174444 73 97 0.0 5.0 0.00 0.00 0.00 49 1006.4
20210615174320 73 97 0.0 5.0 0.00 0.00 0.00 48 1006.4
20210615174151 73 97 0.0 5.0 0.00 0.00 0.00 48 1006.4
20210615174023 73 99 0.0 5.0 0.00 0.00 0.00 46 1006.4
20210615173856 73 96 0.0 5.0 0.00 0.00 0.00 44 1006.4
20210615173729 73 97 3.0 5.0 0.00 0.00 0.00 47 1006.4
20210615173602 73 127 0.0 0.0 0.00 0.00 0.00 43 1006.4
20210615173432 73 127 0.0 0.0 0.00 0.00 0.00 42 1006.4
20210615173305 73 126 0.0 0.0 0.00 0.00 0.00 45 1006.4
20210615173138 73 106 0.0 0.0 0.00 0.01 0.00 46 1006.4
20210615173010 73 99 0.0 0.0 0.00 0.01 0.00 46 1006.4
20210615172842 73 110 0.0 0.0 0.00 0.01 0.00 43 1006.6
20210615172714 73 110 0.0 1.0 0.00 0.01 0.00 43 1006.6
20210615172548 73 112 0.0 1.0 0.00 0.01 0.00 45 1006.6
20210615172421 73 110 0.0 1.0 0.00 0.01 0.00 46 1006.6
20210615172254 73 109 0.0 7.0 0.00 0.01 0.00 47 1006.6
20210615172126 73 112 0.0 7.0 0.00 0.01 0.00 47 1006.6
20210615171956 73 109 0.0 7.0 0.00 0.01 0.00 52 1006.6
20210615171827 73 112 1.0 7.0 0.00 0.01 0.00 50 1006.6
20210615171703 73 117 0.0 7.0 0.00 0.01 0.00 48 1006.6
20210615171538 73 113 2.0 7.0 0.00 0.01 0.00 47 1006.6
20210615171406 72 103 1.0 7.0 0.00 0.01 0.00 44 1006.9
20210615171240 72 88 0.0 6.0 0.00 0.01 0.00 44 1006.9
20210615171115 72 69 1.0 6.0 0.00 0.01 0.00 46 1006.9
20210615170945 72 120 0.0 0.0 0.00 0.01 0.00 43 1006.9
20210615170817 72 120 0.0 0.0 0.00 0.01 0.00 42 1006.9
20210615170648 72 120 0.0 0.0 0.00 0.01 0.00 48 1006.9
20210615170525 72 120 0.0 0.0 0.00 0.01 0.00 47 1006.9
20210615170357 72 120 0.0 2.0 0.00 0.01 0.00 50 1006.9
20210615170239 72 120 0.0 2.0 0.00 0.01 0.00 46 1006.9
20210615170057 72 120 0.0 2.0 0.00 0.01 0.00 45 1006.9
20210615165925 72 120 0.0 12.0 0.00 0.01 0.00 44 1006.9
20210615165801 72 121 0.0 13.0 0.00 0.01 0.00 45 1006.9
20210615165632 72 121 1.0 13.0 0.00 0.01 0.00 47 1006.9
20210615165507 72 123 0.0 13.0 0.00 0.01 0.00 47 1006.9
20210615165343 72 121 0.0 13.0 0.00 0.01 0.00 47 1006.9
20210615165214 72 123 5.0 13.0 0.00 0.01 0.00 43 1006.9
20210615165046 72 121 11.0 13.0 0.00 0.01 0.00 43 1006.9
20210615164914 72 128 0.0 5.0 0.00 0.01 0.00 48 1006.9
20210615164746 72 76 0.0 5.0 0.00 0.01 0.00 51 1006.9
20210615164624 72 75 0.0 5.0 0.00 0.01 0.00 49 1006.9
20210615164452 72 75 0.0 5.0 0.00 0.01 0.00 48 1007.1
20210615164324 72 66 1.0 5.0 0.00 0.01 0.00 46 1007.1
20210615164157 71 119 0.0 14.0 0.00 0.01 0.00 43 1007.1
20210615164027 71 119 0.0 14.0 0.00 0.01 0.00 47 1007.1
20210615163900 71 119 0.0 14.0 0.00 0.01 0.00 44 1007.1
20210615163731 71 119 0.0 14.0 0.00 0.01 0.00 40 1007.1
20210615163605 71 117 0.0 14.0 0.00 0.01 0.00 42 1007.1
20210615163434 71 119 5.0 14.0 0.00 0.01 0.00 43 1007.1
20210615163307 71 119 3.0 14.0 0.00 0.01 0.00 49 1007.1
20210615163137 71 113 0.0 7.0 0.00 0.01 0.00 48 1007.1
20210615163009 71 123 1.0 7.0 0.00 0.01 0.00 48 1007.1
20210615162842 71 121 2.0 7.0 0.00 0.01 0.00 49 1007.4
20210615162719 71 123 2.0 7.0 0.00 0.01 0.00 48 1007.4
20210615162552 71 141 0.0 12.0 0.00 0.01 0.00 48 1007.4
20210615162422 71 141 3.0 12.0 0.00 0.01 0.00 45 1007.4
20210615162254 70 143 0.0 12.0 0.00 0.01 0.00 46 1007.4
20210615162127 70 120 0.0 12.0 0.00 0.01 0.00 46 1007.4
20210615161957 70 120 0.0 16.0 0.00 0.01 0.00 47 1007.4
20210615161830 70 120 0.0 16.0 0.00 0.01 0.00 47 1007.4
20210615161706 70 119 6.0 16.0 0.00 0.01 0.00 49 1007.4
20210615161539 70 119 0.0 16.0 0.00 0.01 0.00 46 1007.4
20210615161408 70 120 0.0 16.0 0.00 0.01 0.00 46 1007.7
20210615161241 70 120 0.0 16.0 0.00 0.01 0.00 48 1007.7
20210615161117 70 120 9.0 16.0 0.00 0.01 0.00 50 1007.7
20210615160944 70 137 5.0 9.0 0.00 0.01 0.00 50 1007.7
20210615160819 70 123 0.0 9.0 0.00 0.01 0.00 50 1007.7
20210615160652 70 124 2.0 11.0 0.00 0.01 0.00 52 1007.7
20210615160522 70 138 1.0 11.0 0.00 0.01 0.00 53 1007.7
20210615160355 70 116 1.0 11.0 0.00 0.01 0.00 50 1007.7
20210615160237 70 116 7.0 11.0 0.00 0.01 0.00 52 1007.7
20210615160057 70 114 0.0 11.0 0.00 0.01 0.00 52 1007.7
20210615155926 70 114 0.0 11.0 0.00 0.01 0.00 52 1007.8
20210615155800 70 83 6.0 11.0 0.00 0.01 0.00 54 1007.8
20210615155634 70 83 0.0 0.0 0.00 0.01 0.00 52 1007.8
20210615155504 70 83 0.0 0.0 0.00 0.01 0.00 54 1007.8
20210615155340 70 83 0.0 0.0 0.00 0.01 0.00 55 1007.8
20210615155207 70 82 0.0 0.0 0.00 0.01 0.00 53 1007.8
20210615155041 70 82 0.0 0.0 0.00 0.01 0.00 58 1007.8
20210615154915 70 80 0.0 1.0 0.00 0.01 0.00 55 1007.8
20210615154747 70 82 0.0 1.0 0.00 0.01 0.00 54 1007.8
20210615154618 70 80 0.0 1.0 0.00 0.01 0.00 54 1007.8
20210615154446 69 80 0.0 6.0 0.00 0.01 0.00 53 1008.1
20210615154319 69 82 0.0 6.0 0.00 0.01 0.00 51 1008.1
20210615154152 69 80 0.0 6.0 0.00 0.01 0.00 52 1008.1
20210615154022 69 82 0.0 6.0 0.00 0.01 0.00 53 1008.1
20210615153859 69 80 0.0 6.0 0.00 0.01 0.00 55 1008.1
20210615153732 69 80 0.0 6.0 0.00 0.01 0.00 54 1008.1
20210615153608 69 82 3.0 6.0 0.00 0.01 0.00 60 1008.1
20210615153437 69 83 0.0 0.0 0.00 0.01 0.00 59 1008.1
20210615153308 69 82 0.0 0.0 0.00 0.01 0.00 59 1008.1
20210615153139 69 82 0.0 0.0 0.00 0.01 0.00 65 1008.1
20210615153016 69 80 0.0 0.0 0.00 0.01 0.00 64 1008.1
20210615152849 69 79 0.0 0.0 0.00 0.01 0.00 64 1008.4
20210615152720 69 80 0.0 0.0 0.00 0.01 0.00 61 1008.4
20210615152553 69 82 0.0 0.0 0.00 0.01 0.00 61 1008.4
20210615152423 69 80 0.0 7.0 0.00 0.01 0.00 63 1008.4
20210615152254 69 82 0.0 7.0 0.00 0.01 0.00 63 1008.4
20210615152127 68 83 0.0 7.0 0.00 0.01 0.00 63 1008.4
20210615151956 68 82 0.0 7.0 0.00 0.01 0.00 63 1008.4
20210615151830 68 85 0.0 7.0 0.00 0.01 0.00 66 1008.4
20210615151702 68 82 1.0 7.0 0.00 0.01 0.00 66 1008.4
20210615151540 68 82 1.0 7.0 0.00 0.01 0.00 65 1008.4
20210615151409 68 92 0.0 0.0 0.00 0.01 0.00 67 1008.4
20210615151240 68 93 0.0 0.0 0.00 0.01 0.00 68 1008.4
20210615151119 68 92 0.0 0.0 0.00 0.01 0.00 69 1008.4
20210615150948 68 92 0.0 0.0 0.00 0.01 0.00 66 1008.4
20210615150819 67 92 0.0 0.0 0.00 0.01 0.00 65 1008.4
20210615150652 67 92 0.0 1.0 0.00 0.01 0.00 66 1008.4
20210615150525 67 93 0.0 1.0 0.00 0.01 0.00 68 1008.4
20210615150357 67 92 0.0 1.0 0.00 0.01 0.00 67 1008.4
20210615150240 67 92 0.0 1.0 0.00 0.01 0.00 67 1008.4
20210615150059 67 90 0.0 1.0 0.00 0.01 0.00 67 1008.4
20210615145930 67 92 0.0 1.0 0.00 0.01 0.00 67 1008.5
20210615145802 67 93 0.0 1.0 0.00 0.01 0.00 68 1008.5
20210615145634 67 93 0.0 0.0 0.00 0.01 0.00 71 1008.5
20210615145505 67 92 0.0 0.0 0.00 0.01 0.00 71 1008.5
20210615145336 67 93 0.0 0.0 0.00 0.01 0.00 72 1008.5
20210615145211 67 96 0.0 0.0 0.00 0.01 0.00 73 1008.5
20210615145045 67 96 0.0 0.0 0.00 0.01 0.00 73 1008.5
20210615144915 66 96 0.0 0.0 0.00 0.01 0.00 71 1008.5
20210615144748 66 96 0.0 0.0 0.00 0.01 0.00 71 1008.5
20210615144620 66 96 0.0 0.0 0.00 0.01 0.00 71 1008.5
20210615144449 67 95 0.0 0.0 0.00 0.01 0.00 70 1008.5
20210615144321 67 95 0.0 0.0 0.00 0.01 0.00 70 1008.5
20210615144154 67 96 0.0 5.0 0.00 0.01 0.00 71 1008.5
20210615144026 67 95 0.0 5.0 0.00 0.01 0.00 71 1008.5
20210615143859 67 93 0.0 5.0 0.00 0.01 0.00 71 1008.5
20210615143730 67 93 0.0 5.0 0.00 0.01 0.00 73 1008.5
20210615143604 67 95 0.0 5.0 0.00 0.01 0.00 74 1008.5
20210615143434 67 95 0.0 5.0 0.00 0.01 0.00 75 1008.5
20210615143311 66 95 0.0 5.0 0.00 0.01 0.00 75 1008.5
20210615143143 66 89 0.0 0.0 0.00 0.01 0.00 75 1008.5
20210615143016 66 75 0.0 1.0 0.00 0.01 0.00 75 1008.5
20210615142849 66 75 0.0 1.0 0.00 0.01 0.00 76 1008.6
20210615142721 66 76 0.0 1.0 0.00 0.01 0.00 77 1008.6
20210615142552 66 72 0.0 1.0 0.00 0.01 0.00 78 1008.6
20210615142423 66 109 0.0 1.0 0.00 0.01 0.00 77 1008.6
20210615142254 65 112 0.0 1.0 0.00 0.01 0.00 77 1008.6
20210615142129 65 112 0.0 1.0 0.00 0.01 0.00 77 1008.6
20210615141959 65 112 0.0 0.0 0.00 0.01 0.00 77 1008.6
20210615141832 65 110 0.0 0.0 0.00 0.01 0.00 77 1008.6
20210615141706 65 112 0.0 0.0 0.00 0.01 0.00 76 1008.6
20210615141539 65 110 0.0 0.0 0.00 0.01 0.00 76 1008.6
20210615141412 65 112 0.0 0.0 0.00 0.01 0.00 76 1008.8
20210615141245 65 110 0.0 0.0 0.00 0.01 0.00 76 1008.8
20210615141120 65 112 0.0 0.0 0.00 0.01 0.00 76 1008.8
20210615140948 65 110 0.0 0.0 0.00 0.01 0.00 76 1008.8
20210615140821 65 110 0.0 0.0 0.00 0.01 0.00 77 1008.8
20210615140655 65 123 0.0 3.0 0.00 0.01 0.00 77 1008.8
20210615140527 65 123 0.0 3.0 0.00 0.01 0.00 77 1008.8
20210615140357 65 123 0.0 3.0 0.00 0.01 0.00 76 1008.8
20210615140243 64 121 0.0 3.0 0.00 0.01 0.00 75 1008.8
20210615140103 64 124 0.0 3.0 0.00 0.01 0.00 76 1008.8
20210615135932 64 123 1.0 3.0 0.00 0.01 0.00 76 1009.0
20210615135804 64 123 0.0 0.0 0.00 0.01 0.00 76 1009.0
20210615135636 64 121 0.0 0.0 0.00 0.01 0.00 76 1009.0
20210615135513 64 121 0.0 0.0 0.00 0.01 0.00 76 1009.0
20210615135344 64 121 0.0 0.0 0.00 0.01 0.00 76 1009.0
20210615135216 64 123 0.0 0.0 0.00 0.01 0.00 76 1009.0
20210615135050 64 121 0.0 0.0 0.00 0.01 0.00 77 1009.0
20210615134921 64 123 0.0 0.0 0.00 0.01 0.00 78 1009.0
20210615134752 64 121 0.0 0.0 0.00 0.01 0.00 78 1009.0
20210615134626 64 121 0.0 0.0 0.00 0.01 0.00 79 1009.0
20210615134455 64 123 0.0 0.0 0.00 0.01 0.00 79 1009.1
20210615134327 64 124 0.0 0.0 0.00 0.01 0.00 79 1009.1
20210615134158 64 123 0.0 0.0 0.00 0.01 0.00 79 1009.1
20210615134028 64 123 0.0 0.0 0.00 0.01 0.00 78 1009.1
20210615133902 64 124 0.0 0.0 0.00 0.01 0.00 79 1009.1
20210615133735 64 121 0.0 0.0 0.00 0.01 0.00 81 1009.1
20210615133612 64 124 0.0 0.0 0.00 0.01 0.00 81 1009.1
20210615133442 63 121 0.0 0.0 0.00 0.01 0.00 80 1009.1
20210615133315 63 123 0.0 0.0 0.00 0.01 0.00 80 1009.1
20210615133148 63 124 0.0 0.0 0.00 0.02 0.00 81 1009.1
20210615133021 63 124 0.0 0.0 0.00 0.02 0.00 81 1009.1
20210615132853 63 124 0.0 0.0 0.00 0.02 0.00 81 1009.2
20210615132725 63 126 0.0 0.0 0.00 0.02 0.00 82 1009.2
20210615132558 63 126 0.0 0.0 0.00 0.02 0.00 82 1009.2
20210615132429 63 124 0.0 0.0 0.00 0.02 0.00 81 1009.2
20210615132301 63 124 0.0 0.0 0.00 0.02 0.00 82 1009.2
20210615132134 63 126 0.0 0.0 0.00 0.02 0.00 82 1009.2
20210615132003 63 124 0.0 0.0 0.00 0.02 0.00 82 1009.2
20210615131833 63 124 0.0 0.0 0.00 0.02 0.00 82 1009.2
20210615131711 63 126 0.0 0.0 0.00 0.02 0.00 83 1009.2
20210615131543 63 124 0.0 0.0 0.00 0.02 0.00 83 1009.2
20210615131412 63 126 0.0 0.0 0.00 0.02 0.00 83 1008.2
20210615131244 63 124 0.0 0.0 0.00 0.02 0.00 84 1008.2
20210615131117 63 124 0.0 0.0 0.00 0.02 0.00 85 1008.2
20210615130947 63 126 0.0 0.0 0.00 0.02 0.00 86 1008.2
20210615130820 63 124 0.0 0.0 0.00 0.02 0.00 86 1008.2
20210615130653 63 124 0.0 0.0 0.00 0.02 0.00 87 1008.2
20210615130525 62 126 0.0 0.0 0.00 0.02 0.00 87 1008.2
20210615130359 62 126 0.0 0.0 0.00 0.02 0.00 87 1008.2
20210615130240 62 124 0.0 0.0 0.00 0.02 0.00 87 1008.2
20210615130100 62 127 0.0 0.0 0.00 0.02 0.00 87 1008.2
20210615125931 62 126 0.0 0.0 0.00 0.02 0.00 87 1008.4
20210615125806 62 123 0.0 0.0 0.00 0.02 0.00 87 1008.4
20210615125640 62 124 0.0 0.0 0.00 0.02 0.00 87 1008.4
20210615125512 62 126 0.0 10.0 0.00 0.02 0.00 87 1008.4
20210615125344 62 124 0.0 10.0 0.00 0.02 0.00 87 1008.4
20210615125217 62 124 0.0 10.0 0.00 0.02 0.00 87 1008.4
20210615125050 62 124 0.0 10.0 0.00 0.02 0.00 87 1008.4
20210615124919 62 123 0.0 10.0 0.00 0.02 0.00 88 1008.4
20210615124750 62 126 1.0 10.0 0.00 0.02 0.00 88 1008.4
20210615124624 62 126 7.0 10.0 0.00 0.02 0.00 88 1008.4
20210615124454 62 121 0.0 0.0 0.00 0.02 0.00 89 1008.3
20210615124326 62 123 0.0 0.0 0.00 0.02 0.00 89 1008.3
20210615124159 62 121 0.0 0.0 0.00 0.02 0.00 89 1008.3
20210615124032 62 121 0.0 0.0 0.00 0.02 0.00 90 1008.3
20210615123910 62 121 0.0 0.0 0.00 0.02 0.00 90 1008.3
20210615123744 62 120 0.0 0.0 0.00 0.02 0.00 90 1008.3
20210615123619 62 121 0.0 0.0 0.00 0.02 0.00 90 1008.3
20210615123448 62 121 0.0 0.0 0.00 0.02 0.00 91 1008.3
20210615123321 62 121 0.0 0.0 0.00 0.02 0.00 91 1008.3
20210615123154 62 121 0.0 0.0 0.00 0.30 0.00 91 1008.3
20210615123027 62 123 0.0 0.0 0.00 0.30 0.00 91 1008.3
20210615122900 62 121 0.0 0.0 0.00 0.30 0.00 91 1008.3
20210615122733 62 121 0.0 0.0 0.00 0.30 0.00 91 1008.3
20210615122606 62 121 0.0 0.0 0.00 0.30 0.00 92 1008.3
20210615122437 61 123 0.0 0.0 0.00 0.30 0.00 92 1008.3
20210615122310 61 123 0.0 0.0 0.00 0.30 0.00 93 1008.3
20210615122141 61 121 0.0 0.0 0.00 0.30 0.00 93 1008.3
20210615122018 61 121 0.0 0.0 0.00 0.30 0.00 93 1008.3
20210615121852 61 121 0.0 0.0 0.00 0.30 0.00 93 1008.3
20210615121725 61 121 0.0 0.0 0.00 0.30 0.00 93 1008.3
20210615121558 61 123 0.0 0.0 0.00 0.30 0.00 93 1008.3
20210615121428 61 121 0.0 0.0 0.00 0.30 0.00 93 1009.3
20210615121301 61 123 0.0 0.0 0.00 0.30 0.00 93 1009.3
20210615121134 61 121 0.0 0.0 0.00 0.30 0.00 93 1009.3
20210615121004 61 121 0.0 1.0 0.00 0.30 0.00 94 1009.3
20210615120837 61 121 0.0 1.0 0.00 0.30 0.00 94 1009.3
20210615120708 61 121 0.0 1.0 0.00 0.30 0.00 94 1009.3
20210615120542 61 123 0.0 1.0 0.00 0.30 0.00 94 1009.3
20210615120409 61 121 0.0 1.0 0.00 0.30 0.00 94 1009.3
20210615120235 61 123 0.0 1.0 0.00 0.30 0.00 96 1009.3
20210615120056 61 121 0.0 0.0 0.00 0.30 0.00 96 1009.3
20210615115924 61 123 0.0 2.0 0.00 0.30 0.00 97 1009.3
20210615115757 61 123 0.0 4.0 0.00 0.30 0.00 98 1009.3
20210615115629 61 121 0.0 4.0 0.00 0.30 0.00 98 1009.3
20210615115459 61 121 0.0 4.0 0.00 0.30 0.00 99 1009.3
20210615115328 61 121 0.0 4.0 0.00 0.30 0.00 99 1009.3
20210615115202 61 123 0.0 4.0 0.00 0.30 0.00 100 1009.3
20210615115036 61 123 2.0 4.0 0.00 0.30 0.00 100 1009.3
20210615114906 61 109 0.0 0.0 0.00 0.30 0.00 100 1009.3
20210615114739 61 109 0.0 0.0 0.00 0.30 0.00 100 1009.3
20210615114613 61 109 0.0 0.0 0.00 0.30 0.00 100 1009.3
20210615114443 61 107 0.0 0.0 0.00 0.30 0.00 100 1009.0
20210615114320 61 106 0.0 0.0 0.00 0.30 0.00 100 1009.0
20210615114154 61 107 0.0 0.0 0.00 0.30 0.00 100 1009.0
20210615114027 61 107 0.0 0.0 0.00 0.30 0.00 100 1009.0
20210615113859 61 107 0.0 0.0 0.00 0.30 0.00 100 1009.0
20210615113732 61 106 0.0 0.0 0.00 0.30 0.00 100 1009.0
20210615113604 61 96 0.0 0.0 0.00 0.30 0.00 100 1009.0
20210615113433 61 96 0.0 0.0 0.00 0.30 0.00 100 1009.0
20210615113305 61 96 0.0 0.0 0.00 0.30 0.00 100 1009.0
20210615113134 61 96 0.0 0.0 0.00 0.36 0.00 100 1009.0
20210615113005 61 96 0.0 0.0 0.00 0.36 0.00 100 1009.0
20210615112836 61 96 0.0 0.0 0.00 0.36 0.00 100 1009.0
20210615112708 61 96 0.0 0.0 0.00 0.36 0.00 100 1009.0
20210615112541 61 95 0.0 0.0 0.00 0.36 0.00 100 1009.0
20210615112416 61 97 0.0 0.0 0.00 0.36 0.00 100 1009.0
20210615112248 61 96 0.0 0.0 0.00 0.36 0.00 100 1009.0
20210615112121 61 95 0.0 0.0 0.00 0.36 0.00 100 1009.0
20210615111951 61 95 0.0 0.0 0.00 0.36 0.00 100 1009.0
20210615111824 61 95 0.0 0.0 0.00 0.36 0.00 100 1009.0
20210615111656 61 96 0.0 0.0 0.00 0.36 0.00 100 1009.0
20210615111527 61 96 0.0 0.0 0.00 0.36 0.00 100 1009.0
20210615111359 61 96 0.0 0.0 0.00 0.36 0.00 100 1007.9
20210615111232 61 97 0.0 0.0 0.00 0.36 0.00 100 1007.9
20210615111103 61 96 0.0 0.0 0.00 0.36 0.00 100 1007.9
20210615110934 61 97 0.0 0.0 0.00 0.36 0.00 100 1007.9
20210615110806 61 96 0.0 0.0 0.00 0.36 0.00 100 1007.9
20210615110638 61 97 0.0 0.0 0.00 0.36 0.00 100 1007.9
20210615110519 61 96 0.0 0.0 0.00 0.36 0.00 100 1007.9
20210615110352 61 96 0.0 0.0 0.00 0.36 0.00 100 1007.9
20210615110234 61 97 0.0 0.0 0.00 0.36 0.00 100 1007.9
20210615110054 61 97 0.0 0.0 0.00 0.36 0.00 100 1007.9
20210615105924 60 97 0.0 0.0 0.00 0.36 0.00 100 1007.9
20210615105757 60 96 0.0 0.0 0.00 0.36 0.00 100 1007.9
20210615105630 60 96 0.0 0.0 0.00 0.36 0.00 100 1007.9
20210615105459 60 96 0.0 0.0 0.00 0.36 0.00 100 1007.9
20210615105332 60 96 0.0 0.0 0.00 0.36 0.00 100 1007.9
20210615105204 60 97 0.0 0.0 0.00 0.36 0.00 100 1007.9
20210615105037 60 97 0.0 0.0 0.00 0.36 0.00 100 1007.9
20210615104907 60 97 0.0 0.0 0.00 0.36 0.00 100 1007.9
20210615104739 60 97 0.0 0.0 0.00 0.36 0.00 100 1007.9
20210615104616 60 97 0.0 0.0 0.00 0.36 0.00 100 1007.9
20210615104445 60 97 0.0 0.0 0.00 0.36 0.00 100 1008.0
20210615104318 60 96 0.0 0.0 0.00 0.36 0.00 100 1008.0
20210615104151 60 100 0.0 0.0 0.00 0.36 0.00 100 1008.0
20210615104024 60 96 0.0 0.0 0.00 0.36 0.00 100 1008.0
20210615103856 60 97 0.0 0.0 0.00 0.36 0.00 100 1008.0
20210615103729 60 96 0.0 0.0 0.00 0.36 0.00 100 1008.0
20210615103601 60 97 0.0 0.0 0.00 0.36 0.00 100 1008.0
20210615103432 60 97 0.0 0.0 0.00 0.36 0.00 100 1008.0
20210615103305 60 99 0.0 0.0 0.00 0.36 0.00 100 1008.0
20210615103138 60 97 0.0 0.0 0.00 0.36 0.00 100 1008.0
20210615103011 60 97 0.0 0.0 0.00 0.36 0.00 100 1008.0
20210615102842 60 99 0.0 0.0 0.00 0.36 0.00 100 1007.8
20210615102718 60 97 0.0 0.0 0.00 0.36 0.00 100 1007.8
20210615102550 60 96 0.0 0.0 0.00 0.36 0.00 100 1007.8
20210615102419 60 97 0.0 0.0 0.00 0.36 0.00 100 1007.8
20210615102250 60 97 0.0 0.0 0.00 0.36 0.00 100 1007.8
20210615102125 60 97 0.0 0.0 0.00 0.36 0.00 100 1007.8
20210615101956 60 96 0.0 0.0 0.00 0.36 0.00 100 1007.8
20210615101828 60 97 0.0 0.0 0.00 0.36 0.00 100 1007.8
20210615101701 60 97 0.0 0.0 0.00 0.36 0.00 100 1007.8
20210615101535 60 97 0.0 0.0 0.00 0.36 0.00 100 1007.8
20210615101404 60 97 0.0 0.0 0.00 0.36 0.00 100 1007.9
20210615101238 60 97 0.0 0.0 0.00 0.36 0.00 100 1007.9
20210615101111 60 96 0.0 0.0 0.00 0.36 0.00 100 1007.9
20210615100940 60 97 0.0 0.0 0.00 0.36 0.00 100 1007.9
20210615100815 60 97 0.0 0.0 0.00 0.36 0.00 100 1007.9
20210615100650 60 99 0.0 0.0 0.00 0.36 0.00 100 1007.9
20210615100523 60 99 0.0 0.0 0.00 0.36 0.00 100 1007.9
20210615100355 60 97 0.0 0.0 0.00 0.36 0.00 100 1007.9
20210615100237 60 97 0.0 0.0 0.00 0.36 0.00 100 1007.9
20210615100056 60 99 0.0 0.0 0.00 0.36 0.00 100 1007.9
20210615095925 60 97 0.0 0.0 0.00 0.36 0.00 100 1007.9
20210615095756 60 97 0.0 0.0 0.00 0.36 0.00 100 1007.9
20210615095633 60 97 0.0 0.0 0.00 0.36 0.00 100 1007.9
20210615095506 60 97 0.0 0.0 0.00 0.36 0.00 100 1007.9
20210615095338 60 97 0.0 0.0 0.00 0.36 0.00 100 1007.9
20210615095211 60 99 0.0 0.0 0.00 0.36 0.00 100 1007.9
20210615095042 60 96 0.0 0.0 0.00 0.36 0.00 100 1007.9
20210615094916 60 96 0.0 0.0 0.00 0.36 0.00 100 1007.9
20210615094748 60 97 0.0 0.0 0.00 0.36 0.00 100 1007.9
20210615094622 60 97 0.0 0.0 0.00 0.36 0.00 100 1007.9
20210615094450 60 97 0.0 0.0 0.00 0.36 0.00 100 1008.0
20210615094322 60 97 0.0 0.0 0.00 0.36 0.00 100 1008.0
20210615094154 60 97 0.0 0.0 0.00 0.36 0.00 100 1008.0
20210615094024 60 96 0.0 0.0 0.00 0.36 0.00 100 1008.0
20210615093857 60 97 0.0 0.0 0.00 0.36 0.00 100 1008.0
20210615093728 60 96 0.0 0.0 0.00 0.36 0.00 100 1008.0
20210615093601 60 96 0.0 0.0 0.00 0.36 0.00 100 1008.0
20210615093430 60 99 0.0 0.0 0.00 0.36 0.00 100 1008.0
20210615093302 60 97 0.0 0.0 0.00 0.36 0.00 100 1008.0
20210615093134 60 97 0.0 0.0 0.00 0.36 0.00 100 1008.0
20210615093011 60 97 0.0 0.0 0.00 0.36 0.00 100 1008.0
20210615092843 60 96 0.0 0.0 0.00 0.36 0.00 100 1007.9
20210615092715 60 97 0.0 0.0 0.00 0.36 0.00 100 1007.9
20210615092548 60 97 0.0 0.0 0.00 0.36 0.00 100 1007.9
20210615092417 60 99 0.0 0.0 0.00 0.36 0.00 100 1007.9
20210615092254 60 99 0.0 0.0 0.00 0.36 0.00 100 1007.9
20210615092126 60 97 0.0 0.0 0.00 0.36 0.00 100 1007.9
20210615091957 60 97 0.0 0.0 0.00 0.36 0.00 100 1007.9
20210615091829 60 97 0.0 0.0 0.00 0.36 0.00 100 1007.9
20210615091701 60 99 0.0 0.0 0.00 0.36 0.00 100 1007.9
20210615091536 60 97 0.0 0.0 0.00 0.36 0.00 100 1007.9
20210615091404 60 99 0.0 0.0 0.00 0.36 0.00 100 1008.7
20210615091236 60 97 0.0 0.0 0.00 0.36 0.00 100 1008.7
20210615091114 60 97 0.0 0.0 0.00 0.36 0.00 100 1008.7
20210615090943 60 96 0.0 0.0 0.00 0.36 0.00 100 1008.7
20210615090816 60 96 0.0 0.0 0.00 0.36 0.00 100 1008.7
20210615090649 60 97 0.0 0.0 0.00 0.36 0.00 100 1008.7
20210615090522 60 97 0.0 0.0 0.00 0.36 0.00 100 1008.7
20210615090355 60 97 0.0 0.0 0.00 0.36 0.00 100 1008.7
20210615090238 61 97 0.0 0.0 0.00 0.36 0.00 100 1008.7
20210615090059 61 97 0.0 0.0 0.00 0.36 0.00 100 1008.7
20210615085929 61 96 0.0 0.0 0.00 0.36 0.00 100 1008.8
20210615085803 61 97 0.0 0.0 0.00 0.36 0.00 100 1008.8
20210615085634 61 97 0.0 0.0 0.00 0.36 0.00 100 1008.8
20210615085506 61 96 0.0 0.0 0.00 0.36 0.00 100 1008.8
20210615085337 61 96 0.0 0.0 0.00 0.36 0.00 100 1008.8
20210615085214 61 96 0.0 0.0 0.00 0.36 0.00 100 1008.8
20210615085046 61 96 0.0 0.0 0.00 0.36 0.00 100 1008.8
20210615084917 61 96 0.0 0.0 0.00 0.36 0.00 100 1008.8
20210615084751 61 96 0.0 0.0 0.00 0.36 0.00 100 1008.8
20210615084624 61 95 0.0 0.0 0.00 0.36 0.00 100 1008.8
20210615084454 61 96 0.0 0.0 0.00 0.36 0.00 100 1009.2
20210615084328 61 95 0.0 0.0 0.00 0.36 0.00 100 1009.2
20210615084200 61 96 0.0 0.0 0.00 0.36 0.00 100 1009.2
20210615084031 61 97 0.0 0.0 0.00 0.36 0.00 100 1009.2
20210615083900 61 97 0.0 0.0 0.00 0.36 0.00 100 1009.2
20210615083732 61 96 0.0 0.0 0.00 0.36 0.00 100 1009.2
20210615083606 61 97 0.0 0.0 0.00 0.36 0.00 100 1009.2
20210615083437 61 96 0.0 0.0 0.00 0.36 0.00 100 1009.2
20210615083314 61 97 0.0 0.0 0.00 0.36 0.00 100 1009.2
20210615083145 61 96 0.0 0.0 0.00 0.36 0.00 100 1009.2
20210615083018 61 96 0.0 0.0 0.00 0.36 0.00 100 1009.2
20210615082851 61 96 0.0 0.0 0.00 0.36 0.00 100 1009.2
20210615082725 61 96 0.0 0.0 0.00 0.36 0.00 100 1009.2
20210615082559 61 99 0.0 0.0 0.00 0.36 0.00 100 1009.2
20210615082432 61 97 0.0 0.0 0.00 0.36 0.00 100 1009.2
20210615082305 61 99 0.0 0.0 0.00 0.36 0.00 100 1009.2
20210615082138 61 97 0.0 0.0 0.00 0.36 0.00 100 1009.2
20210615082011 61 99 0.0 0.0 0.00 0.36 0.00 100 1009.2
20210615081843 61 97 0.0 0.0 0.00 0.36 0.00 100 1009.2
20210615081717 61 97 0.0 0.0 0.00 0.36 0.00 100 1009.2
20210615081551 61 97 0.0 0.0 0.00 0.36 0.00 100 1009.2
20210615081426 61 99 0.0 0.0 0.00 0.36 0.00 100 1009.2
20210615081258 61 99 0.0 0.0 0.00 0.36 0.00 100 1009.2
20210615081133 61 97 0.0 0.0 0.00 0.36 0.00 100 1009.2
20210615081002 61 99 0.0 0.0 0.00 0.36 0.00 100 1009.2
20210615080833 61 99 0.0 0.0 0.00 0.36 0.00 100 1009.2
20210615080704 61 99 0.0 0.0 0.00 0.36 0.00 100 1009.2
20210615080537 61 99 0.0 0.0 0.00 0.36 0.00 100 1009.2
20210615080407 61 97 0.0 0.0 0.00 0.36 0.00 100 1009.2
20210615080250 61 97 0.0 0.0 0.00 0.36 0.00 100 1009.2
20210615080113 61 100 0.0 0.0 0.00 0.36 0.00 100 1009.2
20210615075942 61 97 0.0 0.0 0.00 0.36 0.00 100 1008.5
20210615075815 61 97 0.0 0.0 0.00 0.36 0.00 100 1008.5
20210615075648 61 97 0.0 0.0 0.00 0.36 0.00 100 1008.5
20210615075525 61 97 0.0 0.0 0.00 0.36 0.00 100 1008.5
20210615075357 61 97 0.0 0.0 0.00 0.36 0.00 100 1008.5
20210615075230 60 97 0.0 0.0 0.00 0.36 0.00 100 1008.5
20210615075103 60 97 0.0 0.0 0.00 0.36 0.00 100 1008.5
20210615074932 60 97 0.0 0.0 0.00 0.36 0.00 100 1008.5
20210615074805 60 97 0.0 0.0 0.00 0.36 0.00 100 1008.5
20210615074639 60 99 0.0 0.0 0.00 0.36 0.00 100 1008.5
20210615074512 60 97 0.0 0.0 0.00 0.36 0.00 100 1008.5
20210615074343 60 99 0.0 0.0 0.00 0.36 0.00 100 1008.5
20210615074214 60 97 0.0 0.0 0.00 0.36 0.00 100 1008.5
20210615074047 60 99 0.0 0.0 0.00 0.36 0.00 100 1008.5
20210615073916 60 99 0.0 0.0 0.00 0.36 0.00 100 1008.5
20210615073746 60 99 0.0 0.0 0.00 0.36 0.00 100 1008.5
20210615073623 60 99 0.0 0.0 0.00 0.36 0.00 100 1008.5
20210615073452 60 97 0.0 0.0 0.00 0.36 0.00 100 1008.5
20210615073324 60 99 0.0 0.0 0.00 0.36 0.00 100 1008.5
20210615073156 60 99 0.0 0.0 0.00 0.36 0.00 100 1008.5
20210615073028 60 99 0.0 0.0 0.00 0.36 0.00 100 1008.5
20210615072858 60 99 0.0 0.0 0.00 0.36 0.00 100 1009.6
20210615072728 60 99 0.0 0.0 0.00 0.36 0.00 100 1009.6
20210615072601 60 99 0.0 0.0 0.00 0.36 0.00 100 1009.6
20210615072429 60 100 0.0 0.0 0.00 0.36 0.00 100 1009.6
20210615072300 60 100 0.0 0.0 0.00 0.36 0.00 100 1009.6
20210615072135 60 100 0.0 0.0 0.00 0.36 0.00 100 1009.6
20210615072009 60 96 0.0 0.0 0.00 0.36 0.00 100 1009.6
20210615071842 60 96 0.0 0.0 0.00 0.36 0.00 100 1009.6
20210615071718 61 96 0.0 0.0 0.00 0.36 0.00 100 1009.6
20210615071550 61 96 0.0 0.0 0.00 0.36 0.00 100 1009.6
20210615071419 61 99 0.0 0.0 0.00 0.36 0.00 100 1009.4
20210615071251 61 99 0.0 0.0 0.00 0.36 0.00 100 1009.4
20210615071126 61 97 0.0 0.0 0.00 0.36 0.00 100 1009.4
20210615070955 61 96 0.0 0.0 0.00 0.36 0.00 100 1009.4
20210615070827 61 97 0.0 0.0 0.00 0.36 0.00 100 1009.4
20210615070700 61 97 0.0 0.0 0.00 0.36 0.00 100 1009.4
20210615070532 61 97 0.0 0.0 0.00 0.36 0.00 100 1009.4
20210615070404 61 99 0.0 0.0 0.00 0.36 0.00 100 1009.4
20210615070246 61 99 0.0 0.0 0.00 0.36 0.00 100 1009.4
20210615070105 61 97 0.0 0.0 0.00 0.36 0.00 100 1009.4
20210615065935 61 96 0.0 0.0 0.00 0.36 0.00 100 1008.5
20210615065812 61 96 0.0 0.0 0.00 0.36 0.00 100 1008.5
20210615065644 61 96 0.0 0.0 0.00 0.36 0.00 100 1008.5
20210615065517 61 97 0.0 0.0 0.00 0.36 0.00 100 1008.5
20210615065350 61 99 0.0 0.0 0.00 0.36 0.00 100 1008.5
20210615065222 61 99 0.0 0.0 0.00 0.36 0.00 100 1008.5
20210615065056 61 99 0.0 0.0 0.00 0.36 0.00 100 1008.5
20210615064924 61 99 0.0 0.0 0.00 0.36 0.00 100 1008.5
20210615064757 61 99 0.0 0.0 0.00 0.36 0.00 100 1008.5
20210615064629 61 99 0.0 0.0 0.00 0.36 0.00 100 1008.5
20210615064458 61 99 0.0 0.0 0.00 0.36 0.00 99 1008.8
20210615064330 61 99 0.0 0.0 0.00 0.36 0.00 99 1008.8
20210615064202 61 96 0.0 0.0 0.00 0.36 0.00 99 1008.8
20210615064035 61 97 0.0 0.0 0.00 0.36 0.00 98 1008.8
20210615063909 61 97 0.0 0.0 0.00 0.36 0.00 98 1008.8
20210615063742 61 97 0.0 0.0 0.00 0.36 0.00 98 1008.8
20210615063615 61 99 0.0 0.0 0.00 0.36 0.00 98 1008.8
20210615063443 61 99 0.0 0.0 0.00 0.36 0.00 98 1008.8
20210615063316 61 97 0.0 0.0 0.00 0.36 0.00 98 1008.8
20210615063150 61 99 0.0 0.0 0.00 0.36 0.00 97 1008.8
20210615063022 61 97 0.0 0.0 0.00 0.36 0.00 97 1008.8
20210615062855 61 99 0.0 0.0 0.00 0.36 0.00 97 1009.7
20210615062728 61 99 0.0 0.0 0.00 0.36 0.00 96 1009.7
20210615062602 61 99 0.0 0.0 0.00 0.36 0.00 97 1009.7
20210615062431 61 99 0.0 0.0 0.00 0.36 0.00 97 1009.7
20210615062305 61 99 0.0 0.0 0.00 0.36 0.00 97 1009.7
20210615062138 61 97 0.0 0.0 0.00 0.36 0.00 98 1009.7
20210615062015 61 99 0.0 0.0 0.00 0.36 0.00 98 1009.7
20210615061848 61 99 0.0 0.0 0.00 0.36 0.00 98 1009.7
20210615061720 61 99 0.0 0.0 0.00 0.36 0.00 98 1009.7
20210615061553 61 99 0.0 0.0 0.00 0.36 0.00 98 1009.7
20210615061424 61 99 0.0 0.0 0.00 0.36 0.00 98 1009.9
20210615061256 61 99 0.0 0.0 0.00 0.36 0.00 98 1009.9
20210615061132 61 99 0.0 0.0 0.00 0.36 0.00 98 1009.9
20210615061002 61 97 0.0 0.0 0.00 0.36 0.00 98 1009.9
20210615060833 61 99 0.0 0.0 0.00 0.36 0.00 98 1009.9
20210615060708 61 97 0.0 0.0 0.00 0.36 0.00 98 1009.9
20210615060541 61 97 0.0 0.0 0.00 0.36 0.00 98 1009.9
20210615060412 61 99 0.0 0.0 0.00 0.36 0.00 99 1009.9
20210615060255 61 99 0.0 0.0 0.00 0.36 0.00 99 1009.9
20210615060121 61 97 0.0 0.0 0.00 0.36 0.00 99 1009.9
20210615055952 61 99 0.0 0.0 0.00 0.36 0.00 99 1010.0
20210615055825 61 97 0.0 0.0 0.00 0.36 0.00 99 1010.0
20210615055656 61 97 0.0 0.0 0.00 0.36 0.00 99 1010.0
20210615055529 61 97 0.0 0.0 0.00 0.36 0.00 99 1010.0
20210615055401 61 97 0.0 0.0 0.00 0.36 0.00 99 1010.0
20210615055236 61 96 0.0 0.0 0.00 0.36 0.00 98 1010.0
20210615055109 61 97 0.0 0.0 0.00 0.36 0.00 98 1010.0
20210615054940 61 97 0.0 0.0 0.00 0.36 0.00 98 1010.0
20210615054812 61 99 0.0 0.0 0.00 0.36 0.00 98 1010.0
20210615054643 61 99 0.0 0.0 0.00 0.36 0.00 98 1010.0
20210615054515 61 97 0.0 0.0 0.00 0.36 0.00 98 1010.0
20210615054348 61 97 0.0 0.0 0.00 0.36 0.00 98 1009.9
20210615054225 61 97 0.0 0.0 0.00 0.36 0.00 98 1009.9
20210615054059 61 97 0.0 0.0 0.00 0.36 0.00 98 1009.9
20210615053927 61 97 0.0 0.0 0.00 0.36 0.00 98 1009.9
20210615053759 61 97 0.0 0.0 0.00 0.36 0.00 98 1009.9
20210615053632 61 99 0.0 0.0 0.00 0.36 0.00 98 1009.9
20210615053501 61 99 0.0 0.0 0.00 0.36 0.00 98 1009.9
20210615053333 61 97 0.0 0.0 0.00 0.36 0.00 98 1009.9
20210615053206 61 97 0.0 0.0 0.00 0.36 0.00 98 1009.9
20210615053038 61 97 0.0 0.0 0.00 0.36 0.00 98 1009.9
20210615052909 61 99 0.0 0.0 0.00 0.36 0.00 98 1009.3
20210615052740 61 97 0.0 0.0 0.00 0.36 0.00 98 1009.3
20210615052614 61 99 0.0 0.0 0.00 0.36 0.00 98 1009.3
20210615052444 61 96 0.0 0.0 0.00 0.36 0.00 98 1009.3
20210615052320 61 97 0.0 0.0 0.00 0.36 0.00 98 1009.3
20210615052154 61 96 0.0 0.0 0.00 0.36 0.00 98 1009.3
20210615052026 61 97 0.0 0.0 0.00 0.36 0.00 98 1009.3
20210615051900 61 97 0.0 0.0 0.00 0.36 0.00 98 1009.3
20210615051733 61 97 0.0 0.0 0.00 0.36 0.00 98 1009.3
20210615051608 61 100 0.0 0.0 0.00 0.36 0.00 98 1009.3
20210615051438 61 97 0.0 0.0 0.00 0.36 0.00 98 1009.2
20210615051311 61 100 0.0 0.0 0.00 0.36 0.00 97 1009.2
20210615051144 61 99 0.0 0.0 0.00 0.36 0.00 97 1009.2
20210615051017 61 97 0.0 0.0 0.00 0.36 0.00 97 1009.2
20210615050848 61 97 0.0 0.0 0.00 0.36 0.00 97 1009.2
20210615050719 61 99 0.0 0.0 0.00 0.36 0.00 97 1009.2
20210615050553 61 99 0.0 0.0 0.00 0.36 0.00 97 1009.2
20210615050426 61 99 0.0 0.0 0.00 0.36 0.00 97 1009.2
20210615050308 61 99 0.0 0.0 0.00 0.36 0.00 97 1009.2
20210615050127 61 99 0.0 0.0 0.00 0.36 0.00 97 1009.2
20210615045956 61 99 0.0 1.0 0.00 0.36 0.00 97 1009.3
20210615045831 61 100 0.0 1.0 0.00 0.36 0.00 97 1009.3
20210615045703 61 99 0.0 1.0 0.00 0.36 0.00 97 1009.3
20210615045536 61 99 0.0 1.0 0.00 0.36 0.00 97 1009.3
20210615045407 61 99 0.0 1.0 0.00 0.36 0.00 97 1009.3
20210615045238 61 99 0.0 1.0 0.00 0.36 0.00 96 1009.3
20210615045113 61 100 0.0 1.0 0.00 0.36 0.00 96 1009.3
20210615044942 61 99 0.0 0.0 0.00 0.36 0.00 96 1009.3
20210615044814 61 100 0.0 0.0 0.00 0.36 0.00 95 1009.3
20210615044645 61 99 0.0 0.0 0.00 0.36 0.00 95 1009.3
20210615044519 61 99 0.0 0.0 0.00 0.36 0.00 95 1009.3
20210615044351 61 99 0.0 0.0 0.00 0.36 0.00 95 1009.4
20210615044223 61 97 0.0 0.0 0.00 0.36 0.00 94 1009.4
20210615044057 61 99 0.0 0.0 0.00 0.36 0.00 94 1009.4
20210615043927 61 99 0.0 0.0 0.00 0.36 0.00 94 1009.4
20210615043800 61 99 0.0 0.0 0.00 0.36 0.00 94 1009.4
20210615043632 61 99 0.0 0.0 0.00 0.36 0.00 94 1009.4
20210615043505 61 100 0.0 0.0 0.00 0.36 0.00 94 1009.4
20210615043338 61 99 0.0 0.0 0.00 0.36 0.00 94 1009.4
20210615043211 61 99 0.0 0.0 0.00 0.36 0.00 94 1009.4
20210615043043 61 100 0.0 0.0 0.00 0.36 0.00 94 1009.4
20210615042914 61 99 0.0 0.0 0.00 0.36 0.00 94 1009.2
20210615042746 61 99 0.0 0.0 0.00 0.36 0.00 94 1009.2
20210615042624 61 99 0.0 0.0 0.00 0.36 0.00 93 1009.2
20210615042455 61 97 0.0 0.0 0.00 0.36 0.00 93 1009.2
20210615042327 61 99 0.0 0.0 0.00 0.36 0.00 93 1009.2
20210615042158 61 99 0.0 0.0 0.00 0.36 0.00 93 1009.2
20210615042032 61 99 0.0 0.0 0.00 0.36 0.00 93 1009.2
20210615041905 61 96 0.0 0.0 0.00 0.36 0.00 93 1009.2
20210615041740 61 99 0.0 0.0 0.00 0.36 0.00 93 1009.2
20210615041613 61 99 0.0 0.0 0.00 0.36 0.00 93 1009.2
20210615041443 61 99 0.0 0.0 0.00 0.36 0.00 93 1009.4
20210615041316 61 97 0.0 0.0 0.00 0.36 0.00 93 1009.4
20210615041149 61 99 0.0 0.0 0.00 0.36 0.00 93 1009.4
20210615041023 61 100 0.0 0.0 0.00 0.36 0.00 93 1009.4
20210615040856 61 97 0.0 0.0 0.00 0.36 0.00 93 1009.4
20210615040733 61 99 0.0 0.0 0.00 0.36 0.00 93 1009.4
20210615040607 61 97 0.0 0.0 0.00 0.36 0.00 93 1009.4
20210615040435 61 97 0.0 0.0 0.00 0.36 0.00 93 1009.4
20210615040308 61 97 0.0 0.0 0.00 0.36 0.00 92 1009.4
20210615040150 61 99 0.0 0.0 0.00 0.36 0.00 92 1009.4
20210615040006 61 97 0.0 0.0 0.00 0.36 0.36 92 1009.4
20210615035838 61 97 0.0 0.0 0.00 0.36 0.36 92 1009.4
20210615035710 61 99 0.0 0.0 0.00 0.36 0.36 92 1009.4
20210615035545 61 96 0.0 0.0 0.00 0.36 0.36 92 1009.4
20210615035413 61 99 0.0 0.0 0.00 0.36 0.36 92 1009.4
20210615035246 61 99 0.0 0.0 0.00 0.36 0.36 92 1009.4
20210615035118 61 97 0.0 0.0 0.00 0.36 0.36 92 1009.4
20210615034947 61 97 0.0 0.0 0.00 0.36 0.36 92 1009.4
20210615034823 61 97 0.0 0.0 0.00 0.36 0.36 92 1009.4
20210615034653 61 97 0.0 0.0 0.00 0.36 0.36 92 1009.4
20210615034526 61 97 0.0 0.0 0.00 0.36 0.36 92 1009.4
20210615034401 61 97 0.0 0.0 0.00 0.36 0.36 92 1009.6
20210615034234 61 97 0.0 0.0 0.00 0.36 0.36 92 1009.6
20210615034106 61 99 0.0 0.0 0.00 0.36 0.36 92 1009.6
20210615033935 61 97 0.0 0.0 0.00 0.36 0.36 92 1009.6
20210615033810 61 97 0.0 0.0 0.00 0.36 0.36 92 1009.6
20210615033645 61 99 0.0 0.0 0.00 0.36 0.36 92 1009.6
20210615033518 61 99 0.0 0.0 0.00 0.36 0.36 92 1009.6
20210615033350 61 99 0.0 0.0 0.00 0.36 0.36 92 1009.6
20210615033222 61 99 0.0 0.0 0.00 0.36 0.36 92 1009.6
20210615033056 61 99 0.0 0.0 0.00 0.36 0.36 92 1009.6
20210615032933 61 99 0.0 0.0 0.00 0.36 0.36 92 1009.6
20210615032806 61 99 0.0 0.0 0.00 0.36 0.36 92 1009.6
20210615032639 61 97 0.0 0.0 0.00 0.36 0.36 92 1009.6
20210615032512 61 99 0.0 0.0 0.00 0.36 0.36 92 1009.6
20210615032345 61 99 0.0 0.0 0.00 0.36 0.36 91 1009.6
20210615032218 61 97 0.0 0.0 0.00 0.36 0.36 91 1009.6
20210615032051 61 99 0.0 0.0 0.00 0.36 0.36 91 1009.6
20210615031919 61 99 0.0 0.0 0.00 0.36 0.36 91 1009.6
20210615031751 61 99 0.0 0.0 0.00 0.36 0.36 91 1009.6
20210615031625 61 97 0.0 0.0 0.00 0.36 0.36 91 1009.6
20210615031455 61 97 0.0 0.0 0.00 0.36 0.36 91 1009.8
20210615031325 61 99 0.0 0.0 0.00 0.36 0.36 91 1009.8
20210615031202 61 99 0.0 0.0 0.00 0.36 0.36 91 1009.8
20210615031041 61 99 0.0 0.0 0.00 0.36 0.36 91 1009.8
20210615030911 61 97 0.0 0.0 0.00 0.36 0.36 91 1009.8
20210615030744 61 96 0.0 0.0 0.00 0.36 0.36 91 1009.8
20210615030618 61 99 0.0 0.0 0.00 0.36 0.36 91 1009.8
20210615030447 61 97 0.0 0.0 0.00 0.36 0.36 91 1009.8
20210615030320 61 99 0.0 0.0 0.00 0.36 0.36 91 1009.8
20210615030202 61 97 0.0 0.0 0.00 0.36 0.36 91 1009.8
20210615030021 61 96 0.0 0.0 0.00 0.36 0.36 91 1009.8
20210615025853 61 97 0.0 0.0 0.00 0.36 0.36 91 1009.9
20210615025728 61 99 0.0 0.0 0.00 0.36 0.36 91 1009.9
20210615025601 61 99 0.0 0.0 0.00 0.36 0.36 91 1009.9
20210615025432 61 99 0.0 0.0 0.00 0.36 0.36 91 1009.9
20210615025306 61 100 0.0 0.0 0.00 0.36 0.36 91 1009.9
20210615025142 61 99 0.0 0.0 0.00 0.36 0.36 91 1009.9
20210615025014 61 99 0.0 0.0 0.00 0.36 0.36 91 1009.9
20210615024846 61 97 0.0 0.0 0.00 0.36 0.36 91 1009.9
20210615024719 61 99 0.0 0.0 0.00 0.36 0.36 91 1009.9
20210615024552 61 99 0.0 0.0 0.00 0.36 0.36 91 1009.9
20210615024421 61 99 0.0 0.0 0.00 0.36 0.36 91 1010.1
20210615024253 61 100 0.0 0.0 0.00 0.36 0.36 91 1010.1
20210615024126 61 99 0.0 0.0 0.00 0.36 0.36 90 1010.1
20210615023956 61 97 0.0 0.0 0.00 0.36 0.36 90 1010.1
20210615023825 61 97 0.0 0.0 0.00 0.36 0.36 90 1010.1
20210615023657 61 99 0.0 0.0 0.00 0.36 0.36 90 1010.1
20210615023529 61 99 0.0 0.0 0.00 0.36 0.36 90 1010.1
20210615023402 61 99 0.0 0.0 0.00 0.36 0.36 90 1010.1
20210615023238 61 97 0.0 0.0 0.00 0.36 0.36 90 1010.1
20210615023109 61 97 0.0 0.0 0.00 0.36 0.36 90 1010.1
20210615022938 61 96 0.0 0.0 0.00 0.36 0.36 90 1010.4
20210615022811 61 99 0.0 0.0 0.00 0.36 0.36 90 1010.4
20210615022644 61 97 0.0 0.0 0.00 0.36 0.36 90 1010.4
20210615022517 61 99 0.0 0.0 0.00 0.36 0.36 90 1010.4
20210615022350 61 99 0.0 0.0 0.00 0.36 0.36 90 1010.4
20210615022223 61 99 0.0 0.0 0.00 0.36 0.36 90 1010.4
20210615022054 61 97 0.0 0.0 0.00 0.36 0.36 90 1010.4
20210615021925 61 99 0.0 0.0 0.00 0.36 0.36 90 1010.4
20210615021757 61 97 0.0 0.0 0.00 0.36 0.36 90 1010.4
20210615021629 61 97 0.0 0.0 0.00 0.36 0.36 90 1010.4
20210615021459 61 99 0.0 0.0 0.00 0.36 0.36 90 1010.5
20210615021338 61 99 0.0 0.0 0.00 0.36 0.36 90 1010.5
20210615021210 61 99 0.0 0.0 0.00 0.36 0.36 90 1010.5
20210615021044 61 96 0.0 0.0 0.00 0.36 0.36 90 1010.5
20210615020913 61 99 0.0 0.0 0.00 0.36 0.36 90 1010.5
20210615020745 61 99 0.0 0.0 0.00 0.36 0.36 90 1010.5
20210615020618 61 100 0.0 0.0 0.00 0.36 0.36 90 1010.5
20210615020445 61 100 0.0 0.0 0.00 0.36 0.36 90 1010.5
20210615020321 61 100 0.0 0.0 0.00 0.36 0.36 90 1010.5
20210615020204 61 97 0.0 0.0 0.00 0.36 0.36 90 1010.5
20210615020023 61 99 0.0 0.0 0.00 0.36 0.36 90 1010.5
20210615015856 61 97 0.0 0.0 0.00 0.36 0.36 90 1010.5
20210615015728 61 97 0.0 0.0 0.00 0.36 0.36 90 1010.5